User: anonymous   Login
Location: Unspecified
(0.0000°N, 0.0000°E)
Time: 15:10:19
(UTC+00:00)
Language:

COSMOS 2454 - Orbit

View from above orbital plane
View from above orbital plane
View from above satellite
View from above satellite

Ground track
Ground track

The orbit data is extracted from the following two-line orbital elements,

1 35635U 09039A   18051.66870980  .00000016  00000-0 -20737-7 0  9996
2 35635  82.9584 170.2740 0018426 315.7118  44.2572 13.89622937435565
Epoch (UTC): 20 February 2018 16:02:56
Eccentricity: 0.0018426
inclination: 82.9584°
perigee height: 916 km
apogee height: 943 km
right ascension of ascending node: 170.2740°
argument of perigee: 315.7118°
revolutions per day: 13.89622937
mean anomaly at epoch: 44.2572°
orbit number at epoch: 43556

The dashed part of the orbit path shows where the satellite is in the earth's shadow,  

DLR